Greybull, WY

5:27 PM MDT on April 30, 2017 (GMT -0600)
South Big Horn County

Weather History for KGEY - June, 2013

Change the Weather History Date:

Wednesday, June 19, 2013

  Actual Average Record
Temperature  
Mean Temperature 77 °F 67 °F  
Max Temperature 96 °F 82 °F 96 °F (2013)
Min Temperature 58 °F 52 °F 44 °F (2014)
Degree Days  
Heating Degree Days 0 1  
Month to date heating degree days 32 60  
Since 1 June heating degree days 32 60  
Since 1 July heating degree days 7651 7740  
Cooling Degree Days 12 4  
Month to date cooling degree days 77 50  
Year to date cooling degree days 104 70  
Since 1 June cooling degree days 77 50  
Growing Degree Days 27 (Base 50)    
Moisture  
Dew Point 31 °F    
Average Humidity 26    
Maximum Humidity 46    
Minimum Humidity 5    
Precipitation  
Precipitation 0.00 in 0.03 in 0.13 in (2000)
Month to date precipitation 0.38 0.98  
Year to date precipitation 2.28 4.15  
Sea Level Pressure  
Sea Level Pressure 29.50 in    
Wind  
Wind Speed 12 mph (South)    
Max Wind Speed 33 mph    
Max Gust Speed 41 mph    
Visibility 10 miles    
Events      
T = Trace of Precipitation, MM = Missing Value Source: NWS Daily Summary

Daily Weather History Graph

Daily Weather History Graph

Search for Another Location

Airport or City:

Trip Planner

Search our weather history database for the weather conditions in past years. The results will help you decide how hot, cold, wet, or windy it might be!

Date:

Astronomy

Jun. 19, 2013 Rise Set
Actual Time 5:27 AM MDT 9:00 PM MDT
Civil Twilight 4:50 AM MDT 9:37 PM MDT
Nautical Twilight 4:01 AM MDT 10:26 PM MDT
Astronomical Twilight 2:57 AM MDT 11:29 PM MDT
Moon 4:50 PM MDT (6/19) 2:21 AM MDT (6/19)
Length of Visible Light 16h 47m
Length of Day
15h 33m
Waxing Gibbous, 81% of the Moon is Illuminated
Jun 19
Waxing Gibbous
Jun 23
Full
Jun 29
Last Quarter
Jul 8
New
Jul 15
First Quarter

Hourly Weather History & Observations

Time (MDT) Temp. Dew Point Humidity Pressure Visibility Wind Dir Wind Speed Gust Speed Precip Events Conditions
12:53 AM 68.0 °F 41.0 °F 37% 29.65 in 10.0 mi Calm Calm - N/A   Clear
1:53 AM 69.1 °F 41.0 °F 36% 29.62 in 10.0 mi Calm Calm - N/A   Clear
2:53 AM 66.9 °F 39.9 °F 37% 29.61 in 10.0 mi Calm Calm - N/A   Clear
3:53 AM 63.0 °F 41.0 °F 45% 29.60 in 10.0 mi East 4.6 mph - N/A   Clear
4:53 AM 59.0 °F 37.9 °F 46% 29.60 in 10.0 mi ESE 5.8 mph - N/A   Clear
5:53 AM 59.0 °F 37.9 °F 46% 29.58 in 10.0 mi ESE 4.6 mph - N/A   Clear
6:53 AM 62.1 °F 39.0 °F 43% 29.57 in 10.0 mi Calm Calm - N/A   Clear
7:53 AM 66.0 °F 39.9 °F 38% 29.55 in 10.0 mi Calm Calm - N/A   Clear
8:53 AM 68.0 °F 42.1 °F 39% 29.54 in 10.0 mi ESE 3.5 mph - N/A   Clear
9:53 AM 75.9 °F 43.0 °F 31% 29.51 in 10.0 mi South 6.9 mph - N/A   Clear
10:53 AM - - N/A% 29.61 in - North - - N/A   Unknown
11:53 AM 84.9 °F 39.9 °F 20% 29.45 in 10.0 mi South 12.7 mph 18.4 mph N/A   Clear
12:53 PM 89.1 °F 36.0 °F 15% 29.41 in 10.0 mi SSE 13.8 mph 21.9 mph N/A   Clear
1:53 PM 93.0 °F 26.1 °F 9% 29.37 in 10.0 mi SSE 19.6 mph 29.9 mph N/A   Clear
2:53 PM 93.9 °F 15.1 °F 6% 29.36 in 10.0 mi South 31.1 mph 38.0 mph N/A   Clear
3:53 PM 95.0 °F 16.0 °F 6% 29.35 in 10.0 mi South 23.0 mph 35.7 mph N/A   Clear
4:53 PM 95.0 °F 17.1 °F 6% 29.33 in 10.0 mi SSW 17.3 mph 29.9 mph N/A   Clear
5:53 PM 91.9 °F 21.0 °F 8% 29.33 in 10.0 mi South 6.9 mph - N/A   Clear
6:43 PM 95.0 °F 12.2 °F 5% 29.46 in 10.0 mi WSW 21.9 mph 26.5 mph N/A   Clear
6:53 PM 93.0 °F 12.0 °F 5% 29.32 in 10.0 mi SW 18.4 mph 26.5 mph N/A   Clear
7:53 PM 87.1 °F 27.0 °F 11% 29.38 in 10.0 mi West 20.7 mph 34.5 mph N/A   Clear
8:53 PM 78.1 °F 34.0 °F 20% 29.48 in 10.0 mi WNW 21.9 mph 32.2 mph N/A   Clear
9:53 PM 75.0 °F 33.1 °F 22% 29.55 in 10.0 mi North 9.2 mph 24.2 mph N/A   Clear
10:53 PM 73.9 °F 30.0 °F 20% 29.70 in 10.0 mi North 4.6 mph - N/A   Clear
11:53 PM 72.0 °F 28.0 °F 20% 29.61 in 10.0 mi WNW 20.7 mph 27.6 mph N/A   Partly Cloudy